Location: Eexterzandvoort
(53.0303°N, 6.7884°E)
Time: 05:51:24
(UTC+00:00)

Cosmos 1605 Rocket - Pass Details

Date: 19 May 2025
Orbit: 944 x 1005 km, 82.9° (Epoch: 14 June)

Event Time Altitude Azimuth Distance (km) Brightness Sun altitude
Rises 23:22:53 0° 347° (NNW) 3,733 8.7 -17.0°
Reaches altitude 10° 23:25:29 10° 343° (NNW) 2,773 7.6 -17.0°
Maximum altitude 23:31:38 54° 268° (W) 1,188 4.4 -17.0°
Enters shadow 23:35:17 24° 202° (SSW) 1,900 5.0 -17.0°
